星链-32624 (STARLINK-32624)

导读

STARLINK-32624是美国SpaceX星链星座的卫星,于2024年11月11日发射入轨,归属美国所有,属于星链低轨互联网星座的组成部分,承担全球卫星互联网组网任务,主要为全球偏远、网络基础设施匮乏区域提供高速互联网接入服务,该卫星延续星链标准化设计,依托一箭多星发射模式完成部署,进一步完善星链星座的全球覆盖能力。

Basic Information
目录编号:
61926
目录名称:
STARLINK-32624
国际标识:
2024-207Q
轨道中心:
EARTH
卫星名称:
星链-32624
卫星全名:
星链-32624 (STARLINK-32624)
卫星状态:
在轨 (已飞行669 天)
发射日期:
2024-11-11 UTC
国别 :
美国 (US)
星等 :
--
This satellite is enrolled in the Space Conjunction Data Service (SCDS) and the current flight risk assessment level is: No High Risk
Orbit Information
数据来源 国际轨道数据 AOE轨道数据
星历时间 2026-09-11T13:30:38+0800
13小时前
查看轨道信息
2026-09-07T06:00:00+0800
4天前
查看轨道信息
半长轴 6861.063km 6861.06km
偏心率 0.0003463 0.0001444
轨道倾角 43.003° 43.002°
近地点辐角 305.166° 259.570°
升交点赤经 313.425° 337.773°
平近点角 54.886° 114.696°
近地点 480.55km 481.932km
远地点 485.302km 483.914km
周期 94.264分钟 94.264分钟
每日圈数 15.276212 15.276224
Detailed Information
固有亮度:
5
最大亮度:
2.5
卫星平台:
Starlink V1.0
覆盖范围:
全球
运营商:
太空探索技术公司
运营商所在国:
美国
制造商(研发单位):
太空探索技术公司
制造商所在国:
美国
使用方式:
暂无
Satellite Introduction
Starlink 计划是 SpaceX 推出的全球卫星互联网项目,通过发射低轨道卫星,为全球尤其是偏远地区提供高速、低延迟的互联网服务。自 2019 年起,Starlink 已部署数千颗卫星,旨在缩小全球数字鸿沟,推动互联网普及。该项目还为军事、航空等行业提供通信支持,带来广泛经济效益。
2D Orbit Map
3D Orbit Map
Orbit Altitude Analysis Chart
Orbit Inclination Analysis Chart
Orbit Comprehensive Analysis Chart
View Comprehensive Chart
Conjunction Data List
Event ID Objects TCA Miss Dist (km) Collision Risk Probability Collision Risk Index (CRI) Action
CDM_260914-060306-192606-783421
2026-09-14T
06:03:41+0000
0.775 km
远距离
1.330076E-5 中风险 0.57
CDM_260913-064005-561006-192621
2026-09-13T
06:40:18+0000
1.502 km
极远距离
3.722317E-6 低风险 0.46
CDM_260912-163505-750306-192621
2026-09-12T
16:35:33+0000
1.748 km
极远距离
2.709273E-6 低风险 0.44
CDM_260913-184206-192606-387521
2026-09-13T
18:42:24+0000
2.128 km
极远距离
2.236034E-6 低风险 0.42
CDM_260912-180905-750306-192621
2026-09-12T
18:09:42+0000
1.889 km
极远距离
2.190408E-6 低风险 0.42
CDM_260913-165205-561006-192621
2026-09-13T
16:52:18+0000
1.839 km
极远距离
2.0611E-6 低风险 0.41
CDM_260914-031305-968706-192621
2026-09-14T
03:13:09+0000
2.122 km
极远距离
1.907641E-6 低风险 0.41
CDM_260913-223005-941106-192621
2026-09-13T
22:30:09+0000
2.143 km
极远距离
1.851834E-6 低风险 0.4
CDM_260913-055505-750306-192621
2026-09-13T
05:55:52+0000
2.102 km
极远距离
1.68341E-6 低风险 0.4
CDM_260914-035603-163006-192621
2026-09-14T
03:56:04+0000
2.591 km
极远距离
1.598218E-6 低风险 0.39
Miss Distance Evolution Trend with All Objects
Collision Probability Evolution Trend with All Objects